Temperature
21 20 20 20 19 19 19 19 19 19 18 18 18 18 18 18 18 17 17 17 17 17 17 17 17 17 17 17 17 17 16 16 16 17 16 16 16 16 16 16 16 16 15
20 20 20 20 19 19 19 19 19 18 18 18 18 18 18 18 17 17 17 17 17 17 17 17 17 17 17 17 17 16 16 16 16 16 16 16 16 16 16 16 15 15 15
20 20 19 19 19 19 19 18 18 18 18 18 18 18 18 17 17 17 17 17 17 16 16 16 16 16 16 16 16 16 16 16 16 16 16 16 16 16 16 15 15 15 15
20 20 19 19 19 19 19 18 18 18 18 18 18 17 17 17 17 17 17 17 16 16 16 16 16 16 16 16 16 16 16 16 16 16 16 16 15 15 15 15 15 15 15
20 19 19 19 19 19 18 18 18 18 18 17 17 17 17 17 17 17 16 16 16 16 16 16 16 16 16 16 16 16 16 15 15 15 15 15 15 15 15 15 15 15 14
19 19 19 19 18 18 18 18 18 18 17 17 17 17 17 17 17 16 16 16 16 16 16 16 16 16 16 16 15 15 15 15 15 15 15 15 15 15 15 15 14 14 14
19 19 18 18 18 18 18 18 17 17 17 17 17 17 16 16 16 16 16 16 16 16 16 16 16 16 15 15 15 15 15 15 15 15 15 15 15 15 15 14 14 14 14
18 18 18 18 17 17 17 17 17 17 16 16 16 16 16 16 16 16 16 16 16 16 16 15 15 15 15 15 15 15 15 15 15 15 15 15 15 14 14 14 14 14 14
17 17 17 17 17 17 16 16 16 16 16 16 16 16 16 16 16 16 15 15 15 15 15 15 15 15 15 15 14 14 14 14 14 14 14 14 14 14 14 13 13 13 13
17 17 17 17 16 16 16 16 16 15 15 15 15 15 15 15 15 15 15 15 15 15 15 15 14 14 14 14 14 14 14 14 14 14 14 14 14 14 13 13 13 13 13
16 16 16 16 16 16 15 15 15 15 15 15 15 15 15 15 15 15 15 15 15 14 14 14 14 14 14 14 14 14 14 14 13 13 13 13 13 13 13 13 13 13 12
16 16 15 15 15 15 15 14 14 14 14 14 14 14 14 14 14 15 15 14 14 14 14 14 14 14 14 13 13 13 13 13 13 13 13 13 13 13 13 12 12 12 12
15 15 15 15 15 14 14 14 14 14 14 14 14 14 14 14 14 14 14 14 14 14 14 14 14 13 13 13 13 13 13 13 12 12 12 12 12 12 12 12 12 12 12
14 14 14 14 14 14 14 14 14 13 13 13 13 13 13 14 14 14 14 14 13 13 13 13 13 13 13 13 13 13 12 12 12 12 12 12 12 12 11 11 11 11 11
14 14 14 13 13 13 13 13 13 13 13 13 13 13 13 13 13 13 13 13 13 13 13 13 13 12 12 12 12 12 12 12 12 12 11 11 11 11 11 11 11 11 11
13 13 13 13 13 13 13 13 13 13 13 13 13 13 13 13 13 13 13 13 13 13 12 12 12 12 12 12 12 12 12 11 11 11 11 11 11 11 11 11 10 10 10
13 13 13 13 13 13 13 13 13 13 13 13 13 13 13 13 13 12 12 12 12 12 12 12 11 11 11 11 11 12 11 11 11 11 11 11 11 11 10 10 10 10 10
13 13 12 12 12 12 12 12 12 12 12 12 12 12 12 12 12 12 12 12 11 11 11 11 11 11 11 11 11 11 11 11 11 11 11 11 11 10 10 10 10 10 9
12 12 12 12 12 12 12 12 12 12 12 12 12 12 12 12 12 12 11 11 11 11 11 11 11 11 11 11 11 11 11 10 10 10 10 10 10 10 10 10 9 9 9
12 12 12 12 12 12 12 12 11 11 11 11 11 11 11 11 11 11 11 11 11 11 11 11 11 11 10 10 10 10 10 10 10 10 10 10 10 10 9 9 9 9 9
12 11 11 11 11 11 11 11 11 11 11 11 11 11 11 11 11 11 11 10 10 10 10 10 10 10 10 10 10 10 10 9 9 9 9 9 9 9 9 9 9 9 9
11 11 11 11 11 11 11 11 11 11 11 11 11 11 11 10 10 10 10 10 10 10 10 10 10 10 10 10 9 9 9 9 9 9 9 9 9 9 9 9 8 8 8
11 11 11 11 11 11 11 11 11 11 11 11 11 10 10 10 10 10 10 10 10 10 10 9 9 9 9 9 9 9 9 9 9 9 9 9 8 8 8 8 8 8 8
11 11 11 11 11 11 11 11 11 11 11 10 10 10 10 10 10 10 10 9 9 9 9 9 9 9 9 9 9 9 9 9 9 9 8 8 8 8 8 8 8 8 8
11 11 11 11 11 11 10 10 10 10 10 10 10 10 10 10 9 9 9 9 9 9 9 9 9 9 8 8 8 8 8 8 8 8 8 8 8 8 8 8 8 8 8
11 11 10 10 10 10 10 10 10 10 10 10 10 10 9 9 9 9 9 9 9 9 8 8 8 8 8 8 8 8 8 8 8 8 7 7 7 7 7 7 7 7 7
Wind_Speed
9 8 7 7 7 6 6 5 5 4 4 5 4 4 4 3 3 3 3 2 3 3 3 3 4 3 3 3 3 4 4 4 5 4 3 3 4 4 4 7 8 8 8
9 7 7 7 7 7 6 6 5 5 5 4 4 4 4 3 3 3 4 3 3 4 4 3 4 3 3 3 3 4 4 4 5 5 3 3 4 5 5 5 5 6 7
8 8 6 7 7 7 7 6 5 5 5 4 4 4 4 3 4 4 4 4 4 5 5 4 4 4 4 4 4 4 4 4 4 4 4 3 3 3 3 3 3 2 4
6 7 7 7 7 7 6 6 6 6 5 5 4 4 4 4 4 4 4 4 4 5 5 5 5 5 5 5 5 4 4 4 3 3 3 3 2 2 3 3 2 2 3
6 6 6 6 6 6 5 5 5 5 6 5 4 3 3 3 3 3 3 3 3 4 4 4 5 5 6 5 4 4 4 3 3 3 3 2 2 2 3 3 4 3 3
7 6 5 5 5 5 5 4 4 4 4 4 4 4 4 4 4 4 3 3 3 3 4 4 4 4 6 6 7 7 7 6 6 5 4 4 5 4 3 3 3 2 3
6 5 4 4 4 4 4 4 4 5 4 4 4 5 5 5 4 4 4 3 3 3 4 4 4 3 3 3 4 5 6 8 9 7 6 7 6 5 4 4 4 4 5
5 4 4 4 4 4 3 4 5 4 4 5 5 5 5 5 5 5 4 4 3 4 4 4 4 4 4 4 3 3 4 4 6 6 7 6 6 5 6 6 6 4 3
4 3 3 4 4 4 4 4 4 4 4 4 5 5 5 5 5 5 4 2 2 3 3 3 3 5 6 5 4 4 4 4 4 5 7 6 6 6 5 3 3 3 3
2 2 2 3 4 4 5 5 4 4 5 4 4 4 5 5 5 5 5 3 3 3 3 3 4 4 4 5 4 4 5 4 2 2 2 3 4 4 6 5 5 5 3
2 1 1 2 2 2 3 3 3 3 3 3 4 3 4 5 5 5 5 3 4 4 4 4 4 5 5 6 6 5 7 5 3 3 2 2 2 3 3 4 5 5 5
1 1 0 1 1 1 1 2 2 3 3 2 2 3 3 4 5 5 5 6 5 5 5 4 4 5 6 6 5 6 6 4 2 2 3 3 3 4 4 4 5 6 6
2 1 0 1 1 1 2 2 2 3 3 3 2 3 3 2 3 5 4 4 5 4 4 5 5 5 5 4 6 6 5 3 3 4 5 5 5 5 3 3 3 3 3
1 1 1 1 1 1 1 1 2 2 2 2 3 3 3 3 3 2 3 3 3 3 3 3 3 4 4 4 4 4 4 4 5 5 5 4 3 3 3 3 3 2 2
1 1 1 1 1 0 1 2 2 3 4 4 4 4 4 4 6 6 4 3 3 4 2 1 1 1 2 2 2 3 3 3 4 4 4 4 3 3 3 3 3 2 3
2 1 1 1 1 1 0 2 3 2 3 5 6 5 4 6 6 5 5 5 4 3 3 2 3 3 3 3 3 3 4 4 5 4 4 4 4 4 4 3 2 3 4
2 2 1 1 1 1 1 1 2 3 2 2 4 5 5 5 5 5 5 4 3 3 3 3 3 3 4 3 3 4 4 5 4 4 4 4 4 3 3 3 3 3 4
1 1 1 1 1 1 2 2 2 2 2 3 3 4 4 5 5 4 3 2 0 1 3 3 3 3 3 4 3 3 3 3 3 3 3 3 3 3 3 3 4 4 4
1 1 1 1 2 2 2 1 1 1 2 2 3 4 3 2 2 1 2 2 2 3 3 4 4 4 4 4 3 3 3 3 3 3 3 3 3 3 3 4 4 5 4
1 2 1 1 1 1 1 1 0 1 1 1 2 3 1 0 0 1 1 2 2 3 3 4 4 3 3 3 3 2 2 2 2 2 2 2 2 2 3 4 4 4 4
1 2 1 0 1 1 1 1 1 1 1 2 3 3 3 2 2 2 2 3 3 3 3 3 3 2 2 2 2 2 2 2 1 1 1 1 1 2 2 2 3 3 3
1 1 1 1 1 1 1 2 1 1 2 2 2 3 3 2 2 2 3 3 3 2 3 3 2 2 2 2 2 2 2 2 2 2 2 2 1 2 2 2 2 2 3
1 1 1 1 1 1 1 1 1 1 1 2 2 2 2 2 2 2 2 2 2 2 2 2 2 2 1 1 2 2 2 3 3 2 2 2 2 2 2 2 2 2 2
1 1 1 1 1 1 1 1 2 1 1 1 1 1 1 2 1 2 1 1 1 1 1 1 1 2 2 1 1 1 1 1 1 1 2 3 2 2 2 2 2 3 3
0 1 1 1 1 1 1 1 1 1 1 1 1 1 1 1 1 1 1 1 1 1 1 1 1 1 1 2 2 1 1 1 1 0 1 2 2 2 2 2 2 2 2
0 0 1 1 0 0 0 0 1 1 1 2 1 1 1 1 1 1 1 1 2 2 2 1 0 1 1 1 1 1 1 1 0 1 1 2 2 3 2 2 2 2 2
Wind_Direction
176 178 183 183 182 179 181 188 188 193 194 191 192 190 192 199 201 199 220 228 229 241 244 235 242 238 233 226 210 202 200 186 212 244 227 207 193 202 198 202 211 208 213
177 176 181 182 178 181 192 193 186 189 194 193 188 190 202 206 203 201 219 229 230 243 248 245 248 244 238 225 208 209 211 200 195 225 233 207 210 206 195 195 200 207 209
170 173 176 181 184 187 194 193 188 191 194 192 190 197 206 206 206 211 214 222 227 234 238 237 244 235 240 234 219 215 214 210 194 200 226 216 217 195 174 194 194 200 208
169 172 177 185 187 187 189 188 191 192 192 195 198 204 205 204 209 216 218 226 238 242 240 235 234 227 229 228 227 220 209 203 198 200 216 218 213 201 170 185 207 219 220
168 178 188 189 185 181 183 188 191 192 199 199 197 209 212 209 221 221 225 233 244 257 255 246 242 232 226 219 219 208 196 198 195 204 217 218 217 194 205 197 205 212 234
172 183 186 178 175 180 184 185 187 194 198 193 200 202 212 229 232 219 216 231 237 244 257 260 260 249 238 222 220 213 199 200 206 210 221 221 227 216 207 199 188 193 239
176 177 177 178 180 189 188 184 196 203 200 202 209 204 215 229 224 223 223 220 232 242 250 256 265 264 231 221 228 229 227 222 211 206 215 224 221 214 199 207 204 203 220
167 172 178 182 190 193 196 203 207 207 206 209 215 210 216 232 227 226 227 224 233 241 242 240 238 245 234 217 216 227 241 242 226 218 217 223 222 210 202 208 211 212 233
143 156 169 170 181 186 197 216 218 212 215 221 220 213 213 238 239 228 208 221 243 254 251 249 243 240 242 215 201 220 243 261 254 230 220 217 215 209 195 173 177 184 230
135 158 160 170 183 193 203 219 220 211 217 221 229 218 210 224 233 217 195 198 231 253 265 261 252 246 238 206 200 209 234 249 244 266 254 242 231 222 204 196 194 198 208
153 144 152 172 186 191 206 214 209 206 205 216 219 223 222 224 232 224 201 200 220 234 242 249 252 249 237 224 215 217 228 228 217 215 233 247 246 232 221 215 206 199 207
139 129 100 251 228 186 194 228 213 192 194 210 216 239 243 236 232 230 219 221 220 224 237 238 236 234 233 231 231 233 228 216 203 207 222 235 237 238 238 230 222 221 221
117 93 26 294 262 209 197 206 220 207 200 211 216 236 255 254 250 243 227 228 228 223 236 237 238 237 231 232 231 230 223 210 202 214 226 236 234 232 228 231 234 234 245
145 163 215 232 313 321 263 218 215 218 213 217 231 239 245 251 253 247 238 228 227 222 229 241 245 239 228 229 234 234 226 214 208 222 233 239 236 230 228 221 218 214 243
161 192 219 210 205 251 312 270 242 226 209 207 234 231 232 245 244 227 221 225 220 213 199 201 210 222 227 235 238 240 231 223 225 229 233 238 236 231 231 217 208 202 215
175 214 236 242 229 150 158 326 326 271 245 229 225 225 238 239 240 234 237 239 235 194 155 195 221 221 227 232 233 237 233 233 233 227 227 232 231 226 226 219 210 208 217
187 218 242 257 240 206 226 261 303 325 333 295 261 245 235 237 246 241 232 235 233 168 177 218 224 226 235 240 241 239 238 237 230 221 222 227 228 227 222 218 216 218 224
208 213 225 233 224 225 234 241 249 274 310 316 304 280 260 244 243 243 209 140 128 193 216 227 234 237 239 238 239 239 246 245 230 225 226 225 222 218 222 220 217 215 219
261 251 251 239 231 234 235 233 247 266 280 296 314 315 301 278 273 271 150 162 216 233 237 241 244 243 245 238 232 230 234 238 231 225 228 227 221 213 218 219 218 222 224
308 302 294 258 248 256 238 200 252 268 278 289 291 286 298 43 340 294 224 226 235 242 243 247 251 248 240 232 227 225 229 236 228 225 230 229 223 214 218 221 217 220 226
300 305 308 290 230 240 244 245 253 253 259 272 276 271 241 222 240 249 248 245 242 246 250 248 247 246 243 238 227 213 205 218 221 226 230 234 236 229 220 215 222 221 219
255 277 293 267 252 249 260 260 253 253 254 266 287 296 267 253 250 253 249 254 253 250 246 240 245 239 229 232 227 215 210 220 237 237 234 229 231 237 232 217 222 230 223
268 279 292 296 275 272 295 289 268 255 257 265 274 286 274 268 265 264 266 275 290 289 287 266 254 263 251 221 211 205 208 226 232 221 212 219 225 228 228 235 236 241 243
292 286 266 271 280 286 302 290 269 263 268 279 284 279 268 259 257 266 272 282 275 274 285 280 262 247 242 204 145 159 201 227 220 205 198 208 222 234 236 245 244 239 235
314 320 294 291 331 329 328 320 314 322 317 307 293 278 277 296 309 303 314 324 329 330 331 323 310 288 240 199 166 150 110 66 36 86 178 203 216 224 230 242 254 255 248
359 353 325 330 358 316 330 11 354 346 330 324 325 325 336 352 355 348 344 341 338 331 328 329 6 90 91 114 165 165 119 106 143 181 164 195 208 222 226 238 250 253 251
Height
1511 1513 1515 1517 1519 1520 1521 1523 1523 1524 1525 1526 1526 1526 1526 1526 1526 1526 1526 1526 1526 1526 1526 1526 1526 1526 1526 1527 1527 1527 1528 1529 1528 1528 1529 1530 1531 1531 1532 1532 1532 1532 1532
1508 1510 1512 1514 1516 1517 1518 1519 1520 1521 1522 1523 1523 1523 1523 1523 1523 1523 1523 1523 1522 1522 1522 1523 1522 1523 1522 1523 1523 1523 1524 1525 1525 1525 1525 1526 1527 1528 1529 1529 1529 1529 1529
1505 1507 1509 1510 1512 1513 1514 1516 1516 1517 1518 1519 1519 1520 1520 1520 1520 1519 1519 1519 1519 1519 1519 1519 1519 1519 1518 1519 1519 1519 1520 1521 1521 1521 1521 1522 1523 1524 1525 1525 1526 1526 1526
1502 1503 1505 1506 1508 1509 1511 1512 1513 1514 1515 1515 1516 1516 1516 1516 1516 1516 1516 1516 1515 1515 1515 1515 1515 1515 1515 1515 1515 1515 1516 1516 1517 1517 1517 1518 1519 1520 1521 1521 1521 1522 1522
1498 1500 1501 1503 1504 1506 1507 1508 1509 1510 1511 1511 1512 1512 1513 1513 1512 1512 1512 1512 1511 1511 1511 1511 1511 1511 1511 1511 1511 1511 1512 1512 1513 1513 1513 1514 1514 1515 1516 1516 1517 1518 1518
1494 1496 1498 1499 1500 1502 1503 1504 1505 1506 1506 1507 1507 1508 1508 1509 1509 1508 1508 1508 1507 1507 1506 1506 1506 1507 1507 1507 1507 1508 1508 1509 1509 1509 1509 1509 1509 1510 1511 1512 1513 1513 1514
1492 1493 1494 1496 1497 1498 1499 1500 1501 1501 1502 1502 1503 1504 1504 1505 1505 1505 1504 1503 1503 1503 1502 1502 1502 1502 1503 1502 1503 1503 1504 1504 1505 1505 1505 1504 1505 1506 1507 1508 1508 1509 1509
1489 1490 1491 1493 1494 1494 1496 1497 1497 1498 1498 1499 1499 1499 1500 1500 1500 1500 1500 1499 1498 1498 1498 1498 1498 1498 1498 1498 1498 1498 1499 1499 1499 1500 1500 1500 1501 1502 1503 1504 1504 1505 1505
1486 1487 1488 1489 1491 1490 1491 1493 1494 1494 1494 1495 1495 1495 1495 1495 1496 1496 1496 1495 1494 1494 1494 1494 1494 1494 1494 1494 1494 1493 1493 1494 1494 1494 1495 1495 1496 1497 1498 1499 1499 1499 1499
1483 1484 1485 1487 1487 1488 1488 1490 1490 1490 1490 1490 1490 1491 1491 1491 1491 1491 1492 1491 1490 1490 1489 1489 1489 1489 1489 1489 1489 1489 1488 1489 1489 1490 1490 1490 1491 1492 1493 1494 1494 1494 1494
1482 1483 1483 1483 1484 1484 1485 1485 1485 1485 1485 1484 1484 1485 1486 1487 1487 1487 1487 1486 1486 1485 1484 1484 1485 1485 1485 1485 1485 1485 1484 1485 1484 1485 1485 1485 1486 1487 1487 1488 1489 1489 1489
1480 1479 1479 1480 1480 1480 1480 1481 1481 1482 1481 1480 1480 1480 1481 1482 1482 1482 1482 1482 1481 1481 1480 1480 1480 1480 1480 1480 1480 1480 1480 1480 1480 1480 1480 1480 1481 1481 1482 1483 1483 1484 1484
1478 1477 1478 1478 1478 1477 1477 1477 1477 1478 1477 1477 1477 1477 1477 1478 1478 1478 1477 1477 1477 1476 1476 1476 1475 1475 1475 1475 1475 1476 1476 1475 1475 1475 1475 1475 1476 1477 1478 1478 1478 1479 1479
1476 1475 1476 1476 1475 1475 1474 1475 1475 1474 1472 1473 1474 1473 1473 1474 1474 1473 1473 1472 1472 1472 1472 1471 1471 1471 1471 1471 1471 1471 1471 1471 1470 1471 1471 1471 1472 1472 1472 1472 1473 1473 1473
1474 1474 1474 1473 1472 1471 1472 1472 1472 1472 1471 1471 1471 1470 1470 1470 1470 1470 1469 1468 1468 1467 1467 1467 1466 1466 1466 1465 1465 1466 1466 1466 1466 1466 1466 1467 1467 1467 1467 1468 1468 1468 1468
1471 1470 1471 1470 1469 1469 1469 1469 1469 1469 1469 1469 1468 1468 1467 1467 1466 1465 1465 1465 1464 1463 1463 1462 1461 1461 1461 1460 1460 1460 1461 1461 1461 1461 1462 1462 1462 1462 1462 1463 1463 1463 1463
1468 1468 1468 1467 1467 1466 1467 1467 1466 1466 1466 1465 1465 1464 1464 1463 1462 1462 1461 1461 1460 1459 1458 1457 1457 1457 1456 1456 1456 1456 1456 1456 1457 1457 1457 1457 1458 1458 1458 1458 1458 1458 1459
1466 1465 1465 1464 1465 1464 1464 1464 1464 1463 1462 1461 1461 1461 1460 1459 1459 1458 1457 1457 1456 1455 1454 1454 1453 1453 1453 1453 1452 1452 1452 1452 1452 1452 1452 1452 1453 1453 1453 1453 1453 1454 1454
1463 1463 1463 1463 1463 1463 1463 1462 1462 1461 1460 1459 1458 1458 1457 1456 1456 1455 1454 1453 1453 1452 1452 1451 1450 1450 1450 1450 1449 1449 1448 1448 1447 1447 1447 1447 1448 1448 1448 1448 1449 1449 1450
1462 1462 1462 1461 1461 1461 1461 1461 1460 1460 1459 1458 1457 1456 1455 1454 1453 1452 1452 1451 1451 1450 1449 1449 1448 1447 1447 1447 1446 1445 1444 1444 1443 1443 1443 1443 1444 1444 1443 1443 1444 1445 1445
1461 1460 1460 1460 1460 1460 1459 1459 1459 1458 1457 1457 1456 1455 1454 1452 1451 1450 1450 1449 1448 1447 1447 1446 1445 1445 1444 1444 1443 1442 1441 1440 1440 1440 1440 1440 1440 1440 1440 1440 1440 1440 1440
1460 1459 1459 1459 1458 1458 1458 1458 1457 1456 1455 1455 1454 1453 1452 1450 1449 1448 1447 1446 1446 1445 1444 1443 1443 1442 1441 1441 1439 1438 1437 1437 1437 1437 1437 1437 1437 1437 1437 1436 1437 1437 1437
1458 1458 1457 1457 1457 1457 1456 1456 1455 1454 1454 1453 1452 1451 1450 1448 1447 1446 1445 1444 1443 1442 1442 1441 1440 1439 1438 1438 1437 1436 1435 1435 1435 1435 1434 1434 1434 1434 1434 1434 1434 1434 1434
1457 1456 1456 1456 1456 1455 1455 1454 1454 1453 1452 1451 1450 1449 1448 1446 1445 1444 1443 1442 1441 1440 1439 1438 1437 1436 1436 1435 1434 1434 1433 1433 1432 1432 1432 1431 1431 1431 1431 1431 1431 1430 1430
1455 1455 1455 1454 1454 1453 1453 1452 1452 1451 1450 1449 1448 1446 1445 1444 1443 1442 1441 1440 1439 1438 1437 1435 1434 1433 1432 1432 1431 1430 1430 1430 1430 1429 1429 1428 1428 1428 1427 1427 1427 1427 1427
1454 1454 1453 1453 1452 1451 1450 1450 1449 1448 1447 1446 1445 1444 1443 1442 1441 1440 1439 1438 1436 1435 1434 1432 1431 1430 1429 1428 1428 1428 1427 1427 1426 1426 1426 1425 1425 1425 1424 1424 1424 1424 1424